E1763 Weather Reports


time (UTC)temp
C
wind
direction
speed
KPH
gust
KPH
rain 1hr
cm
rain 24hr
cm
rain mn
cm
humidity
%
barometer
mb
20260903220040 16 249 0.0 0.0 0.00 1.24 1.14 97 1007.8
20260903214542 16 249 0.0 0.0 0.00 1.24 1.14 97 1007.8
20260903213046 16 249 0.0 0.0 0.00 1.24 1.14 96 1007.9
20260903211535 16 242 0.0 0.0 0.00 1.24 1.14 97 1007.7
20260903210033 16 242 0.0 0.0 0.00 1.24 1.14 97 1007.8
20260903204531 16 242 0.0 0.0 0.00 1.24 1.14 97 1007.8
20260903203043 16 226 0.0 0.0 0.00 1.24 1.14 96 1007.7
20260903201535 16 184 0.0 3.2 0.00 1.24 1.14 97 1007.7
20260903200026 16 233 0.0 0.0 0.00 1.24 1.14 97 1007.7
20260903194522 16 207 0.0 0.0 0.00 1.24 1.14 97 1007.8
20260903193026 16 240 0.0 0.0 0.00 1.24 1.14 97 1008.1
20260903191515 16 221 0.0 0.0 0.00 1.24 1.14 97 1008.1
20260903190013 16 202 0.0 0.0 0.00 1.24 1.14 97 1008.2
20260903184510 16 198 0.0 0.0 0.03 1.24 1.14 97 1008.3
20260903183009 16 194 0.0 0.0 0.05 1.24 1.14 97 1008.3
20260903181512 16 259 0.0 0.0 0.08 1.24 1.14 97 1008.4
20260903180015 15 221 0.0 0.0 0.08 1.24 1.14 96 1008.5
20260903174504 15 226 0.0 0.0 0.05 1.22 1.12 97 1008.5
20260903173004 15 269 0.0 0.0 0.03 1.19 1.09 97 1008.4
20260903171506 15 293 0.0 0.0 0.00 1.17 1.07 97 1008.3
20260903170005 15 261 0.0 0.0 0.00 1.17 1.07 97 1008.2
20260903164504 15 258 0.0 0.0 0.00 1.17 1.07 97 1008.1
20260903163002 15 192 0.0 0.0 0.03 1.17 1.07 97 1008.1
20260903161600 15 265 0.0 0.0 0.03 1.17 1.07 97 1008.0
20260903160100 15 265 0.0 0.0 0.03 1.17 1.07 96 1008.0
20260903154601 15 225 0.0 0.0 0.03 1.17 1.07 96 1008.0
20260903153059 15 225 0.0 0.0 0.00 1.14 1.04 96 1008.0
20260903151559 15 225 0.0 0.0 0.00 1.14 1.04 96 1007.8
20260903150058 15 225 0.0 0.0 0.00 1.14 1.04 96 1007.8
20260903144606 15 225 0.0 0.0 0.00 1.14 1.04 96 1007.8
20260903143056 15 225 0.0 0.0 0.03 1.14 1.04 96 1007.8
20260903141557 15 225 0.0 0.0 0.08 1.14 1.04 96 1007.8
20260903140056 15 241 0.0 4.8 0.13 1.14 1.04 96 1007.8
20260903134556 15 227 0.0 0.0 0.13 1.12 1.02 96 1007.7
20260903133059 15 219 0.0 0.0 0.15 1.12 1.02 96 1007.5
20260903131553 15 202 0.0 0.0 0.18 1.07 0.97 96 1007.4
20260903130053 15 202 0.0 0.0 0.18 1.02 0.91 96 1007.3
20260903124605 15 202 0.0 0.0 0.20 0.99 0.89 96 1007.4
20260903123051 15 202 0.0 0.0 0.23 0.97 0.86 96 1007.3
20260903121549 15 202 0.0 0.0 0.15 0.86 0.76 96 1007.4
20260903120058 15 198 0.0 0.0 0.15 0.84 0.71 96 1007.6
20260903114546 15 192 1.6 6.4 0.13 0.79 0.69 96 1007.6
20260903113115 15 177 0.0 0.0 0.13 0.71 0.64 96 1007.8
20260903111545 15 184 0.0 0.0 0.15 0.71 0.61 95 1007.8
20260903110041 15 215 0.0 0.0 0.20 0.69 0.58 95 1007.9
20260903104553 15 203 0.0 0.0 0.23 0.66 0.56 95 1008.2
20260903103036 15 199 0.0 0.0 0.23 0.61 0.51 95 1008.2
20260903101530 15 191 0.0 0.0 0.20 0.56 0.46 95 1008.3
20260903100035 15 197 0.0 0.0 0.13 0.48 0.38 95 1008.4
20260903094544 15 181 0.0 0.0 0.10 0.46 0.33 95 1008.5
20260903093025 15 182 1.6 8.0 0.08 0.41 0.28 95 1008.7
20260903091528 15 158 0.0 0.0 0.10 0.38 0.25 95 1008.9
20260903090020 15 177 0.0 0.0 0.13 0.38 0.25 95 1009.1
20260903084518 15 172 0.0 0.0 0.13 0.36 0.23 94 1009.1
20260903083018 15 189 0.0 1.6 0.10 0.33 0.20 94 1009.2
20260903081517 15 149 0.0 0.0 0.10 0.28 0.15 94 1009.3
20260903080016 15 180 0.0 1.6 0.13 0.25 0.13 94 1009.3
20260903074511 15 178 0.0 0.0 0.13 0.23 0.10 94 1009.4
20260903073013 14 158 0.0 0.0 0.13 0.23 0.10 93 1009.5
20260903071509 14 178 0.0 0.0 0.10 0.18 0.05 93 1009.5
20260903070006 15 163 0.0 0.0 0.08 0.13 0.00 92 1009.6
20260903064505 15 198 0.0 0.0 0.05 0.10 0.10 92 1009.6
20260903063009 14 163 0.0 0.0 0.08 0.10 0.10 92 1009.7
20260903061507 14 113 0.0 0.0 0.05 0.08 0.08 91 1009.8
20260903060003 15 163 0.0 0.0 0.03 0.05 0.05 90 1010.0
20260903054503 15 178 0.0 0.0 0.03 0.08 0.05 88 1010.3
20260903053002 15 196 0.0 0.0 0.00 0.05 0.03 86 1010.4
20260903051502 16 188 0.0 1.6 0.00 0.05 0.03 82 1010.4
20260903050001 16 186 0.0 0.0 0.00 0.05 0.03 81 1010.4
20260903044602 16 180 0.0 0.0 0.00 0.05 0.03 81 1010.4
20260903043207 16 204 0.0 0.0 0.00 0.05 0.03 81 1010.3
20260903041606 16 202 0.0 0.0 0.00 0.05 0.03 83 1010.3
20260903034558 16 206 0.0 0.0 0.00 0.05 0.03 82 1010.1
20260903033059 16 204 0.0 0.0 0.00 0.05 0.03 82 1010.0
20260903031559 16 223 0.0 0.0 0.00 0.05 0.03 81 1010.0
20260903030057 16 195 0.0 0.0 0.00 0.05 0.03 81 1010.0
20260903024559 16 213 0.0 0.0 0.00 0.05 0.03 80 1010.1
20260903023056 16 259 0.0 1.6 0.00 0.05 0.03 79 1010.2
20260903021556 17 193 0.0 0.0 0.00 0.05 0.03 78 1010.2
20260903020054 17 215 0.0 0.0 0.00 0.05 0.03 77 1010.3
20260903014555 17 213 0.0 0.0 0.00 0.05 0.03 75 1010.4
20260903013105 17 214 0.0 0.0 0.00 0.05 0.03 73 1010.4
20260903011552 17 190 0.0 0.0 0.00 0.05 0.03 73 1010.3
20260903010053 18 200 0.0 0.0 0.00 0.05 0.03 72 1010.5
20260903004553 18 210 0.0 0.0 0.00 0.05 0.03 70 1010.6
20260903003055 18 196 0.0 0.0 0.00 0.05 0.03 69 1010.5
20260903001551 18 233 0.0 0.0 0.00 0.05 0.03 69 1010.4
20260903000050 18 215 0.0 0.0 0.00 0.05 0.03 68 1010.4
20260902234607 18 209 0.0 0.0 0.00 0.05 0.03 66 1010.5
20260902233049 20 202 0.0 0.0 0.00 0.05 0.03 63 1010.6
20260902231552 20 220 0.0 0.0 0.00 0.05 0.03 61 1010.6
20260902230048 21 238 0.0 0.0 0.00 0.05 0.03 63 1010.7
20260902224605 21 223 0.0 0.0 0.00 0.05 0.03 62 1010.8
20260902223143 21 224 0.0 0.0 0.00 0.05 0.03 61 1010.8
20260902221542 21 188 0.0 0.0 0.00 0.05 0.03 66 1011.1